Location: Moscow
(55.7500°N, 37.5830°E)
Time: 07:49:09
(UTC+03:00)

RS-44 - Visible Passes

Search period start: 28 January 2022 00:00
Search period end: 07 February 2022 00:00
Orbit: 1175 x 1510 km, 82.5° (Epoch: 27 January)

Date Brightness Start Highest point End Pass type
(mag) Time Alt. Az. Time Alt. Az. Time Alt. Az.
28 Jan ? 01:53:03 10° NNW 01:55:37 21° NNW 01:55:37 21° NNW visible
28 Jan ? 18:38:11 10° NNW 18:40:59 12° NNW 18:43:49 10° N visible
28 Jan ? 20:36:02 10° N 20:39:45 13° NNE 20:41:34 12° NNE visible
28 Jan ? 22:29:33 10° N 22:34:09 25° NNE 22:34:09 25° NNE visible
29 Jan ? 00:23:05 10° NNW 00:26:45 29° N 00:26:45 29° N visible
29 Jan ? 02:17:10 10° NNW 02:19:21 18° NNW 02:19:21 18° NNW visible
29 Jan ? 19:04:20 10° NNW 19:06:14 11° N 19:08:09 10° N visible
29 Jan ? 20:59:56 10° N 21:04:50 15° NNE 21:05:18 15° NNE visible
29 Jan ? 22:53:23 10° N 22:57:53 28° NNE 22:57:53 28° NNE visible
30 Jan ? 00:47:00 10° NNW 00:50:29 27° NNW 00:50:29 27° NNW visible
30 Jan ? 02:41:26 10° NNW 02:43:05 15° NNW 02:43:05 15° NNW visible
30 Jan ? 19:29:35 10° N 19:31:31 11° N 19:33:28 10° NNE visible
30 Jan ? 21:23:46 10° N 21:29:02 19° NNE 21:29:02 19° NNE visible
30 Jan ? 23:17:14 10° N 23:21:38 30° N 23:21:38 30° N visible
31 Jan ? 01:10:58 10° NNW 01:14:14 25° NNW 01:14:14 25° NNW visible
31 Jan ? 03:06:00 10° NNW 03:06:50 12° NW 03:06:50 12° NW visible
31 Jan ? 17:54:17 10° NW 17:58:01 13° NNW 18:01:47 10° N visible
31 Jan ? 19:53:55 10° N 19:56:47 12° NNE 19:59:38 10° NNE visible
31 Jan ? 21:47:37 10° N 21:52:47 23° NNE 21:52:47 23° NNE visible
31 Jan ? 23:41:06 10° N 23:45:23 32° N 23:45:23 32° N visible
01 Feb ? 01:35:01 10° NNW 01:37:59 22° NNW 01:37:59 22° NNW visible
01 Feb ? 18:20:35 10° NNW 18:23:13 11° NNW 18:25:51 10° N visible
01 Feb ? 20:17:55 10° N 20:21:57 13° NNE 20:23:57 13° NE visible
01 Feb ? 22:11:26 10° N 22:16:32 27° NNE 22:16:32 27° NNE visible
02 Feb ? 00:04:59 10° NNW 00:09:09 32° N 00:09:09 32° N visible
02 Feb ? 01:59:09 10° NNW 02:01:44 19° NNW 02:01:44 19° NNW visible
02 Feb ? 18:46:35 10° NNW 18:48:28 11° N 18:50:22 10° N visible
02 Feb ? 20:41:48 10° N 20:47:00 16° NNE 20:47:42 16° NE visible
02 Feb ? 22:35:16 10° N 22:40:18 31° NNE 22:40:18 31° NNE visible
03 Feb ? 00:28:55 10° NNW 00:32:54 30° NNW 00:32:54 30° NNW visible
03 Feb ? 02:23:29 10° NNW 02:25:29 15° NW 02:25:29 15° NW visible
03 Feb ? 19:11:37 10° N 19:13:46 11° N 19:15:54 10° NNE visible
03 Feb ? 21:05:39 10° N 21:11:28 20° NE 21:11:28 20° NE visible
03 Feb ? 22:59:07 10° N 23:04:04 34° N 23:04:04 34° N visible
04 Feb ? 00:52:55 10° NNW 00:56:39 27° NNW 00:56:39 27° NNW visible
04 Feb ? 02:48:14 10° NNW 02:49:16 12° NW 02:49:16 12° NW visible
04 Feb ? 19:35:51 10° N 19:39:00 12° NNE 19:42:08 10° NE visible
04 Feb ? 21:29:29 10° N 21:35:14 25° NNE 21:35:14 25° NNE visible
04 Feb ? 23:23:00 10° NNW 23:27:50 36° N 23:27:50 36° N visible
05 Feb ? 01:16:58 10° NNW 01:20:26 24° NW 01:20:26 24° NW visible
05 Feb ? 18:03:01 10° NNW 18:05:26 11° N 18:07:52 10° N visible
05 Feb ? 19:59:49 10° N 20:04:09 14° NNE 20:06:25 13° NE visible
05 Feb ? 21:53:19 10° N 21:59:01 30° NNE 21:59:01 30° NNE visible
05 Feb ? 23:46:55 10° NNW 23:51:37 36° NNW 23:51:37 36° NNW visible
06 Feb ? 01:41:11 10° NNW 01:44:12 20° NW 01:44:12 20° NW visible
06 Feb ? 18:28:52 10° NNW 18:30:43 11° N 18:32:34 10° NNE visible
06 Feb ? 20:23:42 10° N 20:29:10 17° NNE 20:30:12 17° NE visible
06 Feb ? 22:17:10 10° N 22:22:48 35° NNE 22:22:48 35° NNE visible
